TimePDT,TemperatureF,Dew PointF,Humidity,Sea Level PressureIn,VisibilityMPH,Wind Direction,Wind SpeedMPH,Gust SpeedMPH,PrecipitationIn,Events,Conditions,WindDirDegrees,DateUTC
12:53 AM,57.9,50.0,75,30.05,10.0,SSE,6.9,-,N/A,,Clear,150,2013-06-27 07:53:00
1:53 AM,57.0,50.0,77,30.05,10.0,Calm,Calm,-,N/A,,Clear,0,2013-06-27 08:53:00
2:53 AM,55.0,48.9,80,30.05,10.0,SSE,5.8,-,N/A,,Clear,160,2013-06-27 09:53:00
3:53 AM,54.0,48.9,83,30.05,10.0,ENE,3.5,-,N/A,,Clear,70,2013-06-27 10:53:00
4:53 AM,53.1,48.9,86,30.06,10.0,Calm,Calm,-,N/A,,Clear,0,2013-06-27 11:53:00
5:53 AM,51.1,48.9,92,30.08,10.0,SSE,3.5,-,N/A,,Clear,160,2013-06-27 12:53:00
6:53 AM,55.9,51.1,84,30.08,10.0,Calm,Calm,-,N/A,,Clear,0,2013-06-27 13:53:00
7:53 AM,63.0,53.1,70,30.08,10.0,East,3.5,-,N/A,,Clear,100,2013-06-27 14:53:00
8:53 AM,66.9,53.1,61,30.10,10.0,SE,5.8,-,N/A,,Clear,140,2013-06-27 15:53:00
9:53 AM,71.1,52.0,51,30.10,10.0,Variable,6.9,-,N/A,,Clear,0,2013-06-27 16:53:00
10:53 AM,73.0,51.1,46,30.10,10.0,SSE,9.2,-,N/A,,Clear,150,2013-06-27 17:53:00
11:53 AM,75.9,48.9,38,30.11,10.0,Variable,5.8,-,N/A,,Clear,0,2013-06-27 18:53:00
12:53 PM,79.0,48.9,35,30.09,10.0,Variable,5.8,-,N/A,,Clear,0,2013-06-27 19:53:00
1:53 PM,80.1,48.0,32,30.09,10.0,SW,3.5,-,N/A,,Clear,230,2013-06-27 20:53:00
2:53 PM,82.0,46.0,28,30.09,10.0,Calm,Calm,-,N/A,,Clear,0,2013-06-27 21:53:00
3:53 PM,84.9,48.0,28,30.08,10.0,Calm,Calm,-,N/A,,Clear,0,2013-06-27 22:53:00
4:53 PM,84.9,46.9,27,30.08,10.0,SW,5.8,-,N/A,,Clear,230,2013-06-27 23:53:00
5:53 PM,84.9,46.9,27,30.08,10.0,Variable,3.5,-,N/A,,Clear,0,2013-06-28 00:53:00
6:53 PM,84.0,48.9,29,30.07,10.0,West,8.1,-,N/A,,Clear,270,2013-06-28 01:53:00
7:53 PM,81.0,51.1,35,30.08,10.0,NW,10.4,-,N/A,,Clear,320,2013-06-28 02:53:00
8:53 PM,75.0,55.9,51,30.10,10.0,WNW,8.1,-,N/A,,Clear,300,2013-06-28 03:53:00
9:53 PM,70.0,55.9,61,30.12,10.0,NNW,6.9,-,N/A,,Clear,330,2013-06-28 04:53:00
10:53 PM,68.0,55.9,65,30.13,10.0,NNW,3.5,-,N/A,,Clear,330,2013-06-28 05:53:00
11:53 PM,63.0,57.0,81,30.14,10.0,Calm,Calm,-,N/A,,Clear,0,2013-06-28 06:53:00